YAOGAN-31 B

Satellite information

Favourite Embed

Satellite Type and Status

PAYLOADIN ORBIT

Key statistics

Satellite YAOGAN-31 B at a glance.

Uptime

2646

Days in orbit

Revolutions

≈ 13.5

Per day

Orbit

LEO

Low Earth Orbit

Inclination

63.4

Latest

Satellite identification and parameters

Extended collection of information and parameters for YAOGAN-31 B.

Object identification

Identified? True

Debris? False

Object name: YAOGAN-31 B

International designator: 2018-034B

Object number (NORAD): 43276

Object ID (CCSDS): 43276

Country: PEOPLES REPUBLIC OF CHINA (PRC)

Current information (Y/N): Y

RCS size: LARGE

Orbital parameters

Period: 107.031 minutes

Inclination: 63.3962 deg

SMA: 7467.333 km

Apoapsis: 1271.826 km

Periapsis: 906.57 km

RAAN: 257.2325 deg

Eccentricy: 0.0244569

Argument of periapsis: 6.3018 deg

Mean anomaly: 354.0989 deg

Mean motion: 13.45409405 rev/day

Mean motion (dot): -0.00000064 rev/day2

B* drag term: 0.00003765 1/REarth

Two-line elements (TLE)

Creation date: July 8, 2025, 2:27 a.m.

Reference frame: TEME

Reference center: EARTH

Epoch: July 7, 2025, 6:56 p.m. UTC

TLE line 0: 0 YAOGAN-31 B

TLE line 1: 1 43276U 18034B 25188.78905196 -.00000064 00000-0 37650-4 0 9993

TLE line 2: 2 43276 63.3962 257.2325 0244569 6.3018 354.0989 13.45409405355889

Live tracking on map

Real-time ground track for satellite YAOGAN-31 B.

In-orbit conjunctions

There are no conjunctions computed for YAOGAN-31 B, at the moment. Check back to stay up to date, as we update our databases every day.

Go to all conjunctions

Associated space launch

YAOGAN-31 B was lifted into orbit during the mission ‘Long March 4C | 3 x Yaogan-31-01’, on board a Long March 4C space rocket.

The launch took place on April 10, 2018, 4:25 a.m. from Launch Area 4 (SLS-2 / 603).

For more information about the launch, click the button.

Launch to space Long March 4C | 3 x Yaogan-31-01
Long March 4C | 3 x Yaogan-31-01

Agency: N/A

Status: Launch Successful

Launch date: April 10, 2018, 4:25 a.m. UTC

Rocket: Long March 4C

Launch pad: Launch Area 4 (SLS-2 / 603)

Location: Jiuquan Satellite Launch Center, People's Republic of China

...

Latest news about this satellite

There are no fresh news available about this satellite. Check back as we update our databases every day.


Newsletter sign-up

Weekly statistics, charts and insights to help you stay on top of the space industry.